User: anonymous   Login
Location: Shepherdstown, WV
(39.4326°N, 77.8042°W)
Time: 07:57:59
(UTC-04:00)
Language:

S-56A Canister/Altair - Orbit

View from above orbital plane
View from above orbital plane
View from above satellite
View from above satellite

Ground track
Ground track

The orbit data is extracted from the following two-line orbital elements,

1 00082U 61004B   21214.84238454 -.00000093  00000-0 -49077-4 0  9994
2 00082  38.8650 115.0620 1176669 269.0445  77.5534 12.26028683858306
Epoch (UTC): 02 August 2021 20:13:02
Eccentricity: 0.1176669
inclination: 38.8650°
perigee height: 631 km
apogee height: 2501 km
right ascension of ascending node: 115.0620°
argument of perigee: 269.0445°
revolutions per day: 12.26028683
mean anomaly at epoch: 77.5534°
orbit number at epoch: 85830

The dashed part of the orbit path shows where the satellite is in the earth's shadow,  

DLR